STARLINK-32302, 61621

Orbit data source: Space-Track

STARLINK-32302, 61621 is a payload satellite owned by SpaceX/Seattle (US) in LEO that was launched on Wed, 23 Oct 2024 UTC via an FALCON 9 launch vehicle from the Air Force Eastern Test Range (AFETR). Payload-class satellites include a variety of spacecraft equipped with specific instruments for various scientific and technological missions. These include communications satellites like Starlink; space stations such as the ISS; scientific satellites like the Hubble; Earth observation satellites from companies like Planet Labs, Umbra, and HawkEye 360; GPS; miniature CubeSats for education and research; and military/defense satellites.

Loading next visibility...
Identifier
61621, 2024-191A
Orbit
LEO
Country
Flag of USUS
Related business
Manufacturer
SpaceX/Seattle
Mission
Operational Commercial Communications
Bus & Motor
STARLINK V2M, Unknown motor
Mass
730 kg wet, ~700 kg dry
Launch date (UTC)
2024-10-23 (2 years ago)
Launch vehicle
FALCON 9
Launch site
Air Force Eastern Test Range (AFETR)
Object type
Payload
Rocket body
Debris
Shape & HBR
Box + 2 Pan, 17.7 m
Radar Cross Section
33.884 m², Large (>1 m²)

Expand to show TLE details & history
Last TLE update: 7 hours ago

TLE from 7 hours ago
0 STARLINK-32302
1 61621U 24191A   26128.21892145  .00001071  00000-0  48424-4 0  9999
2 61621  43.0020 178.0525 0001395 273.4404  86.6288 15.27578677 87397
Epoch: 2026-05-08T05:15Z
TLE epoch observation values (Epoch: 2026-05-08T05:15:14.813Z)
Latitude
-0.00002°
Longitude
-126.81309°
Altitude
482.773 km
Speed
7.626 km/s
True Right ascension
11h 52m 12s
True Declination
0° 00' 00"
Sunlit
Object was in full shadow at epoch
Visualization orbit readout
Latitude
Unknown
Longitude
Unknown
Altitude
Unknown
Speed
Unknown
Apparent Right ascension
Unknown
Apparent Declination
Unknown
Sunlit
N/A
Visualization observer readout
Local Sidereal Time
20:11:41
Azimuth
Unknown
Elevation
Unknown
Doppler factor
Unknown
Orbital elements
Apogee altitude
485.955 km
Perigee altitude
484.04 km
Semi-major axis
6,863.135 km
Eccentricity
0.00014
Inclination
43.002°
RAAN
178.0525°
Arg. of periapsis
273.4404°
True anomaly
86.64476°
Mean anomaly
86.6288°
Eccentric anomaly
86.63678°
Mean motion
3.81733 °/min
Orbital period
94.31 mins
BSTAR
0.000048424
Loading maneuver chart data...
Computing Atmospheric mass density...
Loading historical data...
Loading historical data...
Loading historical data...
Loading historical data...
Loading historical data...
Loading historical data...
Loading historical data...

Documentation

Showing up to 5 results
|